contact:dominique.lefevre@mio.osupytheas.fr, maurice.libes@osupytheas.fr, didier.mallarino@osupytheas.fr
Project:EMSO http://www.emso-fr.org/EMSO-France
Depth: 2436.0 m
Title:EMSO Ligure Ouest : Data MII capteur AQUADOPP
Date,Latitude,Longitude,X_East,Y_North,Z_Up,Amplitude_X,Amplitude_Y,Amplitude_Z,Batterie,SoundSpeed,Heading,Pitch,Roll,Pressure,TIS,Speed,Direction
, degrees North, degrees East, m.s-1, m.s-1,m.s-1, 1, 1, 1, Volt, m.s-1, degree, degree, degree, dbar, degree_C, m.s-1, degree
2022-06-16T00:04:03,42.805,6.029,-0.017,-0.002,-0.02,107.0,105.0,103.0,13.4,1505.2,321.0,-0.8,1.8,2470.953,13.28,0.017,263.3
2022-06-16T00:07:03,42.805,6.029,-0.014,-0.012,-0.021,107.0,105.0,105.0,13.4,1505.2,329.2,-0.8,1.8,2470.962,13.28,0.018,229.4
2022-06-16T00:10:03,42.805,6.029,-0.025,-0.006,-0.012,106.0,105.0,103.0,13.4,1505.2,325.1,-0.8,1.8,2470.943,13.28,0.025,256.5
2022-06-16T00:13:03,42.805,6.029,-0.019,-0.004,-0.031,106.0,107.0,103.0,13.4,1505.2,323.5,-0.8,1.9,2470.929,13.28,0.019,258.1
2022-06-16T00:16:03,42.805,6.029,-0.02,-0.006,-0.034,106.0,105.0,104.0,13.4,1505.2,328.5,-0.8,1.8,2470.981,13.29,0.02,253.3
2022-06-16T00:19:03,42.805,6.029,-0.006,0.011,-0.08,106.0,106.0,102.0,13.4,1505.2,326.1,-0.8,1.8,2470.928,13.29,0.012,331.4
2022-06-16T00:22:03,42.805,6.029,-0.033,0.01,-0.028,105.0,105.0,103.0,13.4,1505.2,326.3,-0.7,1.8,2470.924,13.29,0.034,286.9
2022-06-16T00:25:03,42.805,6.029,-0.021,-0.015,-0.054,107.0,104.0,102.0,13.3,1505.2,324.9,-0.8,1.8,2470.937,13.29,0.025,234.5
2022-06-16T00:28:03,42.805,6.029,-0.03,0.013,-0.013,106.0,105.0,101.0,13.3,1505.2,328.7,-0.8,1.8,2470.935,13.29,0.032,293.4
2022-06-16T00:31:03,42.805,6.029,-0.034,0.013,-0.03,105.0,104.0,103.0,13.4,1505.2,328.3,-0.7,1.8,2470.931,13.29,0.036,290.9
2022-06-16T00:34:03,42.805,6.029,-0.011,0.007,-0.026,106.0,103.0,103.0,13.3,1505.2,324.0,-0.8,1.8,2470.898,13.29,0.013,302.5
2022-06-16T00:37:03,42.805,6.029,-0.035,0.004,-0.022,105.0,106.0,103.0,13.4,1505.2,321.2,-0.8,1.8,2470.931,13.29,0.035,276.5
2022-06-16T00:40:03,42.805,6.029,-0.014,0.0,-0.05,106.0,104.0,103.0,13.3,1505.2,321.0,-0.8,1.8,2470.88,13.29,0.014,270.0
2022-06-16T00:43:03,42.805,6.029,-0.02,0.001,-0.037,106.0,106.0,102.0,13.4,1505.2,322.8,-0.8,1.8,2470.876,13.29,0.02,272.9
2022-06-16T00:46:03,42.805,6.029,-0.003,0.005,-0.017,105.0,103.0,104.0,13.4,1505.2,327.8,-0.7,1.8,2470.875,13.29,0.005,329.0
2022-06-16T00:49:03,42.805,6.029,-0.028,-0.004,-0.025,106.0,106.0,102.0,13.4,1505.2,324.1,-0.8,1.8,2470.947,13.29,0.028,261.9
2022-06-16T00:52:03,42.805,6.029,-0.044,0.006,-0.034,107.0,105.0,103.0,13.4,1505.2,320.0,-0.7,1.8,2470.892,13.29,0.044,277.8
2022-06-16T00:55:03,42.805,6.029,-0.029,0.014,-0.007,106.0,106.0,102.0,13.3,1505.2,322.7,-0.7,1.8,2470.907,13.29,0.032,295.8
2022-06-16T00:58:03,42.805,6.029,-0.022,0.022,-0.023,107.0,103.0,103.0,13.4,1505.2,330.5,-0.8,1.8,2470.889,13.29,0.031,315.0
2022-06-16T01:04:03,42.805,6.029,-0.006,-0.005,-0.025,106.0,104.0,103.0,13.4,1505.2,320.1,-0.8,1.8,2470.932,13.28,0.007,230.2
2022-06-16T01:07:03,42.805,6.029,-0.007,-0.009,-0.04,104.0,104.0,103.0,13.4,1505.2,320.3,-0.8,1.8,2470.919,13.28,0.011,217.9
2022-06-16T01:10:03,42.805,6.029,-0.02,0.008,-0.01,105.0,104.0,104.0,13.4,1505.2,325.3,-0.8,1.8,2470.931,13.28,0.021,291.8
2022-06-16T01:13:03,42.805,6.029,-0.03,-0.006,-0.025,106.0,104.0,102.0,13.4,1505.2,327.2,-0.8,1.8,2470.891,13.29,0.03,258.7
2022-06-16T01:16:03,42.805,6.029,-0.023,0.003,-0.016,105.0,106.0,102.0,13.4,1505.2,328.9,-0.7,1.8,2470.876,13.29,0.023,277.4
2022-06-16T01:19:03,42.805,6.029,-0.039,-0.019,-0.02,105.0,106.0,105.0,13.4,1505.2,321.8,-0.7,1.8,2470.901,13.29,0.043,244.0
2022-06-16T01:22:03,42.805,6.029,0.001,0.018,0.009,105.0,104.0,101.0,13.3,1505.2,323.7,-0.7,1.8,2470.873,13.29,0.018,3.2
2022-06-16T01:25:03,42.805,6.029,-0.035,0.012,-0.013,104.0,104.0,103.0,13.4,1505.2,324.5,-0.8,1.8,2470.863,13.29,0.037,288.9
2022-06-16T01:28:03,42.805,6.029,-0.017,-0.005,-0.004,105.0,104.0,102.0,13.3,1505.2,325.2,-0.8,1.9,2470.866,13.29,0.017,253.6
2022-06-16T01:31:03,42.805,6.029,-0.013,0.008,-0.016,104.0,103.0,101.0,13.4,1505.2,323.9,-0.8,1.8,2470.841,13.29,0.015,301.6
2022-06-16T01:34:03,42.805,6.029,-0.025,0.019,0.003,103.0,104.0,102.0,13.4,1505.2,329.7,-0.8,1.8,2470.906,13.29,0.031,307.2
2022-06-16T01:37:03,42.805,6.029,-0.021,0.013,0.001,102.0,104.0,102.0,13.3,1505.2,324.0,-0.8,1.8,2470.885,13.29,0.024,301.8
2022-06-16T01:40:03,42.805,6.029,-0.006,0.009,-0.025,104.0,104.0,102.0,13.4,1505.2,329.7,-0.7,1.8,2470.823,13.29,0.01,326.3
2022-06-16T01:43:03,42.805,6.029,-0.037,0.015,-0.044,104.0,102.0,101.0,13.4,1505.2,327.1,-0.8,1.8,2470.83,13.29,0.039,292.1
2022-06-16T01:46:03,42.805,6.029,-0.058,-0.013,-0.04,102.0,104.0,101.0,13.4,1505.2,328.1,-0.8,1.8,2470.853,13.29,0.059,257.4
2022-06-16T01:49:03,42.805,6.029,-0.016,0.011,-0.024,103.0,103.0,101.0,13.4,1505.2,332.1,-0.8,1.8,2470.864,13.29,0.019,304.5
2022-06-16T01:52:03,42.805,6.029,-0.025,-0.005,-0.015,104.0,103.0,103.0,13.4,1505.2,320.2,-0.8,1.8,2470.834,13.29,0.025,258.7
2022-06-16T01:55:03,42.805,6.029,-0.018,0.002,-0.044,104.0,104.0,101.0,13.4,1505.2,324.7,-0.8,1.8,2470.874,13.29,0.018,276.3
2022-06-16T01:58:03,42.805,6.029,-0.021,0.005,-0.033,105.0,104.0,101.0,13.4,1505.2,332.0,-0.7,1.8,2470.807,13.29,0.021,283.4
2022-06-16T02:04:03,42.805,6.029,-0.02,0.003,-0.023,104.0,103.0,101.0,13.4,1505.2,330.3,-0.8,1.8,2470.879,13.28,0.02,278.5
2022-06-16T02:07:03,42.805,6.029,-0.018,-0.017,-0.038,104.0,104.0,102.0,13.4,1505.2,326.0,-0.7,1.8,2470.864,13.28,0.024,226.6
2022-06-16T02:10:03,42.805,6.029,-0.007,0.015,-0.023,105.0,103.0,103.0,13.4,1505.2,327.4,-0.7,1.8,2470.826,13.28,0.016,335.0
2022-06-16T02:13:03,42.805,6.029,-0.009,0.017,-0.025,103.0,103.0,102.0,13.4,1505.2,327.2,-0.8,1.8,2470.859,13.28,0.019,332.1
2022-06-16T02:16:03,42.805,6.029,-0.031,-0.002,-0.022,103.0,104.0,101.0,13.4,1505.2,328.5,-0.8,1.8,2470.861,13.28,0.031,266.3
2022-06-16T02:19:03,42.805,6.029,-0.026,0.013,-0.028,102.0,103.0,101.0,13.4,1505.2,329.0,-0.7,1.8,2470.891,13.28,0.029,296.6
2022-06-16T02:22:03,42.805,6.029,-0.017,0.01,-0.032,105.0,103.0,101.0,13.4,1505.2,325.1,-0.8,1.8,2470.833,13.29,0.019,300.5
2022-06-16T02:25:03,42.805,6.029,-0.024,-0.002,-0.036,107.0,104.0,101.0,13.3,1505.2,334.1,-0.7,1.8,2470.853,13.29,0.024,265.2
2022-06-16T02:28:03,42.805,6.029,-0.02,0.011,-0.008,103.0,104.0,102.0,13.4,1505.2,326.3,-0.7,1.8,2470.884,13.29,0.022,298.8
2022-06-16T02:31:03,42.805,6.029,-0.04,-0.016,-0.036,104.0,104.0,100.0,13.4,1505.2,321.8,-0.8,1.8,2470.835,13.29,0.043,248.2
2022-06-16T02:34:03,42.805,6.029,-0.029,-0.005,-0.037,105.0,104.0,102.0,13.4,1505.2,325.0,-0.7,1.8,2470.839,13.29,0.029,260.2
2022-06-16T02:37:03,42.805,6.029,-0.03,-0.001,-0.012,103.0,104.0,102.0,13.4,1505.2,325.4,-0.8,1.8,2470.78,13.29,0.03,268.1
2022-06-16T02:40:03,42.805,6.029,-0.007,-0.003,0.022,104.0,104.0,103.0,13.4,1505.2,328.2,-0.7,1.8,2470.826,13.29,0.007,246.8
2022-06-16T02:43:03,42.805,6.029,-0.036,0.014,-0.006,104.0,103.0,103.0,13.4,1505.2,323.6,-0.8,1.8,2470.821,13.29,0.038,291.2
2022-06-16T02:46:03,42.805,6.029,-0.013,-0.016,-0.031,104.0,103.0,102.0,13.3,1505.2,325.7,-0.8,1.8,2470.795,13.29,0.02,219.1
2022-06-16T02:49:03,42.805,6.029,-0.014,0.019,-0.039,103.0,104.0,101.0,13.4,1505.2,326.9,-0.7,1.8,2470.853,13.29,0.023,323.6
2022-06-16T02:52:03,42.805,6.029,-0.017,-0.006,-0.006,101.0,104.0,101.0,13.4,1505.2,332.1,-0.8,1.8,2470.856,13.29,0.018,250.6
2022-06-16T02:55:03,42.805,6.029,-0.03,0.028,-0.018,105.0,102.0,101.0,13.4,1505.2,333.2,-0.8,1.8,2470.784,13.29,0.041,313.0
2022-06-16T02:58:03,42.805,6.029,-0.054,0.004,-0.035,105.0,104.0,101.0,13.3,1505.2,324.6,-0.8,1.8,2470.813,13.29,0.054,274.2
2022-06-16T03:04:03,42.805,6.029,-0.02,0.002,-0.022,104.0,103.0,102.0,13.4,1505.2,323.4,-0.8,1.8,2470.821,13.28,0.02,275.7
2022-06-16T03:07:03,42.805,6.029,-0.029,-0.001,-0.031,106.0,103.0,102.0,13.3,1505.2,331.1,-0.7,1.8,2470.847,13.28,0.029,268.0
2022-06-16T03:10:03,42.805,6.029,-0.009,-0.002,-0.002,104.0,105.0,102.0,13.4,1505.2,328.8,-0.7,1.8,2470.852,13.28,0.009,257.5
2022-06-16T03:13:03,42.805,6.029,-0.039,-0.005,-0.053,105.0,103.0,103.0,13.4,1505.2,320.3,-0.8,1.8,2470.837,13.28,0.039,262.7
2022-06-16T03:16:03,42.805,6.029,-0.045,-0.002,-0.015,105.0,104.0,102.0,13.4,1505.2,324.5,-0.7,1.8,2470.821,13.29,0.045,267.5
2022-06-16T03:19:03,42.805,6.029,-0.001,0.002,-0.043,104.0,104.0,102.0,13.4,1505.2,323.8,-0.7,1.8,2470.799,13.28,0.002,333.4
2022-06-16T03:22:03,42.805,6.029,-0.011,-0.006,-0.035,104.0,104.0,102.0,13.4,1505.2,322.6,-0.8,1.8,2470.813,13.29,0.012,241.4
2022-06-16T03:25:03,42.805,6.029,-0.021,-0.011,0.0,106.0,105.0,102.0,13.4,1505.2,325.0,-0.8,1.8,2470.796,13.29,0.023,242.4
2022-06-16T03:28:03,42.805,6.029,-0.021,0.009,-0.051,106.0,104.0,103.0,13.4,1505.2,326.4,-0.8,1.8,2470.794,13.29,0.022,293.2
2022-06-16T03:31:03,42.805,6.029,-0.014,-0.013,-0.017,105.0,103.0,103.0,13.4,1505.2,330.2,-0.8,1.9,2470.801,13.29,0.019,227.1
2022-06-16T03:34:03,42.805,6.029,-0.033,-0.017,-0.013,103.0,104.0,103.0,13.4,1505.2,329.6,-0.8,1.8,2470.832,13.29,0.037,242.7
2022-06-16T03:37:03,42.805,6.029,-0.014,-0.023,-0.026,103.0,103.0,101.0,13.3,1505.2,322.0,-0.7,1.8,2470.78,13.29,0.026,211.3
2022-06-16T03:40:03,42.805,6.029,-0.022,0.024,-0.01,105.0,103.0,101.0,13.4,1505.2,320.6,-0.8,1.8,2470.762,13.29,0.032,317.5
2022-06-16T03:43:03,42.805,6.029,-0.02,0.007,-0.032,105.0,105.0,101.0,13.4,1505.2,320.0,-0.7,1.8,2470.804,13.29,0.021,289.3
2022-06-16T03:46:03,42.805,6.029,-0.019,-0.019,-0.016,104.0,104.0,102.0,13.4,1505.2,320.6,-0.8,1.8,2470.808,13.29,0.026,225.0
2022-06-16T03:49:03,42.805,6.029,-0.007,-0.007,0.01,103.0,104.0,103.0,13.4,1505.2,328.3,-0.8,1.8,2470.761,13.29,0.009,225.0
2022-06-16T03:52:03,42.805,6.029,-0.01,0.009,-0.018,104.0,104.0,104.0,13.4,1505.2,326.3,-0.7,1.8,2470.776,13.29,0.013,312.0
2022-06-16T03:55:03,42.805,6.029,-0.024,-0.009,-0.044,105.0,103.0,101.0,13.3,1505.2,325.3,-0.7,1.8,2470.769,13.29,0.025,249.4
2022-06-16T03:58:03,42.805,6.029,-0.011,-0.011,-0.027,105.0,103.0,101.0,13.4,1505.2,326.8,-0.8,1.8,2470.784,13.29,0.015,225.0
2022-06-16T04:04:03,42.805,6.029,-0.022,-0.013,-0.024,104.0,105.0,102.0,13.4,1505.2,328.6,-0.8,1.8,2470.833,13.28,0.025,239.4
2022-06-16T04:07:03,42.805,6.029,-0.039,0.005,-0.028,103.0,106.0,101.0,13.4,1505.2,322.5,-0.8,1.8,2470.856,13.28,0.039,277.3
2022-06-16T04:10:03,42.805,6.029,-0.029,-0.009,-0.02,104.0,103.0,101.0,13.3,1505.2,322.1,-0.8,1.8,2470.858,13.28,0.03,252.8
2022-06-16T04:13:03,42.805,6.029,-0.033,-0.002,-0.029,103.0,103.0,102.0,13.4,1505.2,328.9,-0.8,1.8,2470.812,13.28,0.033,266.5
2022-06-16T04:16:03,42.805,6.029,-0.048,0.019,-0.05,105.0,102.0,101.0,13.3,1505.2,331.1,-0.8,1.8,2470.816,13.28,0.051,291.6
2022-06-16T04:19:03,42.805,6.029,-0.025,0.0,-0.037,103.0,103.0,101.0,13.4,1505.2,331.8,-0.8,1.8,2470.845,13.28,0.025,270.0
2022-06-16T04:22:03,42.805,6.029,-0.022,0.0,-0.016,105.0,103.0,101.0,13.3,1505.2,325.0,-0.7,1.8,2470.809,13.29,0.022,270.0
2022-06-16T04:25:03,42.805,6.029,-0.019,0.006,-0.009,104.0,104.0,103.0,13.3,1505.2,321.4,-0.8,1.8,2470.826,13.29,0.019,287.5
2022-06-16T04:28:03,42.805,6.029,-0.023,0.006,-0.018,104.0,104.0,102.0,13.4,1505.2,327.4,-0.7,1.8,2470.827,13.29,0.023,284.6
2022-06-16T04:31:03,42.805,6.029,-0.033,0.002,-0.015,104.0,104.0,103.0,13.4,1505.2,328.6,-0.8,1.8,2470.845,13.29,0.033,273.5
2022-06-16T04:34:03,42.805,6.029,-0.012,-0.01,-0.034,104.0,103.0,104.0,13.3,1505.2,326.8,-0.8,1.8,2470.844,13.29,0.015,230.2
2022-06-16T04:37:03,42.805,6.029,-0.028,0.0,-0.019,103.0,105.0,102.0,13.3,1505.2,329.2,-0.8,1.8,2470.84,13.29,0.028,270.0
2022-06-16T04:40:03,42.805,6.029,-0.02,-0.001,-0.03,104.0,103.0,102.0,13.4,1505.2,323.9,-0.8,1.8,2470.84,13.29,0.02,267.1
2022-06-16T04:43:03,42.805,6.029,-0.046,0.012,0.002,103.0,105.0,103.0,13.4,1505.2,327.2,-0.7,1.8,2470.875,13.29,0.047,284.6
2022-06-16T04:46:03,42.805,6.029,-0.019,-0.032,0.0,104.0,104.0,101.0,13.4,1505.2,332.1,-0.7,1.8,2470.828,13.29,0.037,210.7
2022-06-16T04:49:03,42.805,6.029,-0.015,-0.006,-0.023,104.0,103.0,103.0,13.4,1505.2,328.5,-0.8,1.8,2470.845,13.29,0.016,248.2
2022-06-16T04:52:03,42.805,6.029,-0.016,-0.006,0.012,103.0,103.0,102.0,13.4,1505.2,324.4,-0.7,1.8,2470.862,13.29,0.017,249.4
2022-06-16T04:55:03,42.805,6.029,-0.013,-0.024,-0.045,104.0,103.0,101.0,13.3,1505.2,328.2,-0.8,1.8,2470.879,13.28,0.027,208.4
2022-06-16T04:58:03,42.805,6.029,-0.014,0.003,-0.012,104.0,103.0,102.0,13.3,1505.2,320.0,-0.8,1.8,2470.831,13.29,0.014,282.1
2022-06-16T05:04:03,42.805,6.029,-0.027,-0.003,-0.029,103.0,103.0,101.0,13.3,1505.2,325.3,-0.7,1.8,2470.868,13.28,0.027,263.7
2022-06-16T05:07:03,42.805,6.029,-0.018,-0.001,-0.022,104.0,103.0,101.0,13.4,1505.2,330.3,-0.8,1.9,2470.898,13.28,0.018,266.8
2022-06-16T05:10:03,42.805,6.029,-0.03,-0.016,-0.04,103.0,103.0,103.0,13.4,1505.2,323.8,-0.8,1.8,2470.888,13.28,0.034,241.9
2022-06-16T05:13:03,42.805,6.029,-0.019,-0.008,-0.007,104.0,103.0,103.0,13.4,1505.2,325.4,-0.8,1.8,2470.891,13.28,0.02,247.2
2022-06-16T05:16:03,42.805,6.029,-0.013,0.008,-0.046,105.0,104.0,102.0,13.3,1505.2,327.4,-0.7,1.8,2470.869,13.28,0.015,301.6
2022-06-16T05:19:03,42.805,6.029,-0.034,-0.003,-0.015,105.0,103.0,102.0,13.4,1505.2,326.3,-0.8,1.8,2470.86,13.29,0.034,265.0
2022-06-16T05:22:03,42.805,6.029,-0.021,0.013,-0.037,105.0,103.0,101.0,13.4,1505.2,329.3,-0.7,1.8,2470.861,13.28,0.024,301.8
2022-06-16T05:25:03,42.805,6.029,-0.008,-0.006,-0.015,103.0,103.0,102.0,13.4,1505.2,332.1,-0.8,1.8,2470.834,13.29,0.01,233.1
2022-06-16T05:28:03,42.805,6.029,-0.039,0.009,-0.034,104.0,103.0,102.0,13.4,1505.2,330.8,-0.8,1.8,2470.859,13.29,0.04,283.0
2022-06-16T05:31:03,42.805,6.029,-0.039,0.006,-0.008,104.0,102.0,102.0,13.4,1505.2,324.5,-0.8,1.8,2470.906,13.29,0.039,278.7
2022-06-16T05:34:03,42.805,6.029,-0.036,0.003,0.004,103.0,103.0,101.0,13.4,1505.2,322.2,-0.8,1.8,2470.873,13.29,0.036,274.8
2022-06-16T05:37:03,42.805,6.029,-0.019,-0.004,-0.045,103.0,103.0,103.0,13.4,1505.2,322.4,-0.7,1.8,2470.878,13.29,0.019,258.1
2022-06-16T05:40:03,42.805,6.029,-0.029,0.008,-0.042,103.0,105.0,101.0,13.4,1505.2,325.5,-0.8,1.8,2470.873,13.29,0.03,285.4
2022-06-16T05:43:03,42.805,6.029,-0.02,0.023,-0.009,104.0,102.0,102.0,13.3,1505.2,327.3,-0.8,1.8,2470.817,13.29,0.03,319.0
2022-06-16T05:46:03,42.805,6.029,-0.038,0.025,-0.031,104.0,104.0,102.0,13.4,1505.2,332.7,-0.7,1.9,2470.872,13.29,0.045,303.3
2022-06-16T05:49:03,42.805,6.029,0.012,-0.003,-0.025,103.0,103.0,103.0,13.3,1505.2,320.0,-0.8,1.8,2470.864,13.29,0.012,104.0
2022-06-16T05:52:03,42.805,6.029,-0.028,0.0,-0.019,104.0,106.0,102.0,13.4,1505.2,328.8,-0.8,1.8,2470.907,13.29,0.028,270.0
2022-06-16T05:55:03,42.805,6.029,-0.007,0.002,-0.031,106.0,104.0,102.0,13.4,1505.2,325.9,-0.8,1.8,2470.888,13.29,0.007,285.9
2022-06-16T05:58:03,42.805,6.029,-0.034,-0.013,-0.045,103.0,103.0,101.0,13.4,1505.2,324.5,-0.7,1.8,2470.895,13.29,0.036,249.1
2022-06-16T06:04:03,42.805,6.029,-0.016,-0.028,-0.054,104.0,103.0,101.0,13.4,1505.2,327.0,-0.8,1.8,2470.937,13.28,0.032,209.7
2022-06-16T06:07:03,42.805,6.029,-0.017,-0.001,0.005,102.0,104.0,103.0,13.4,1505.2,325.9,-0.7,1.8,2470.911,13.28,0.017,266.6
2022-06-16T06:10:03,42.805,6.029,-0.018,-0.024,-0.033,103.0,103.0,101.0,13.4,1505.2,321.4,-0.8,1.8,2470.919,13.28,0.03,216.9
2022-06-16T06:13:03,42.805,6.029,-0.013,-0.018,-0.048,104.0,102.0,102.0,13.4,1505.2,326.6,-0.7,1.8,2470.922,13.28,0.022,215.8
2022-06-16T06:16:03,42.805,6.029,-0.008,0.007,-0.046,103.0,105.0,101.0,13.3,1505.2,331.8,-0.8,1.8,2470.909,13.28,0.01,311.2
2022-06-16T06:19:03,42.805,6.029,-0.014,-0.008,-0.035,102.0,105.0,101.0,13.3,1505.2,329.3,-0.8,1.8,2470.926,13.29,0.016,240.3
2022-06-16T06:22:03,42.805,6.029,-0.031,0.013,-0.009,104.0,103.0,102.0,13.4,1505.2,324.8,-0.7,1.8,2470.921,13.29,0.033,292.7
2022-06-16T06:25:03,42.805,6.029,-0.03,-0.003,-0.028,105.0,102.0,101.0,13.3,1505.2,322.6,-0.7,1.8,2470.921,13.29,0.03,264.3
2022-06-16T06:28:03,42.805,6.029,-0.029,-0.008,-0.021,103.0,105.0,103.0,13.4,1505.2,323.8,-0.7,1.8,2470.935,13.29,0.03,254.6
2022-06-16T06:31:03,42.805,6.029,-0.007,-0.013,0.002,104.0,102.0,102.0,13.4,1505.2,332.2,-0.7,1.8,2470.932,13.29,0.014,208.3
2022-06-16T06:34:03,42.805,6.029,-0.006,-0.003,-0.021,104.0,103.0,102.0,13.4,1505.2,322.1,-0.8,1.8,2470.891,13.29,0.006,243.4
2022-06-16T06:37:03,42.805,6.029,-0.046,-0.003,-0.072,105.0,102.0,101.0,13.4,1505.2,327.9,-0.7,1.8,2470.935,13.29,0.046,266.3
2022-06-16T06:40:03,42.805,6.029,-0.031,-0.015,-0.041,104.0,103.0,101.0,13.4,1505.2,322.4,-0.8,1.8,2470.93,13.29,0.034,244.2
2022-06-16T06:43:03,42.805,6.029,0.005,0.0,-0.013,104.0,104.0,101.0,13.3,1505.2,326.1,-0.8,1.8,2470.943,13.29,0.005,90.0
2022-06-16T06:46:03,42.805,6.029,-0.027,-0.017,-0.054,104.0,102.0,102.0,13.4,1505.2,328.6,-0.8,1.8,2470.895,13.29,0.031,237.8
2022-06-16T06:49:03,42.805,6.029,-0.01,-0.005,-0.012,104.0,103.0,101.0,13.4,1505.2,332.5,-0.8,1.8,2470.962,13.29,0.011,243.4
2022-06-16T06:52:03,42.805,6.029,-0.021,0.001,-0.033,104.0,103.0,103.0,13.4,1505.2,327.7,-0.7,1.8,2470.959,13.29,0.021,272.7
2022-06-16T06:55:03,42.805,6.029,-0.002,-0.016,-0.019,105.0,103.0,101.0,13.3,1505.2,323.5,-0.8,1.8,2470.913,13.29,0.016,187.1
2022-06-16T06:58:03,42.805,6.029,-0.017,-0.007,-0.025,104.0,104.0,101.0,13.4,1505.2,327.8,-0.8,1.8,2470.948,13.29,0.018,247.6
2022-06-16T07:04:03,42.805,6.029,-0.027,0.009,-0.024,105.0,104.0,103.0,13.4,1505.2,323.5,-0.8,1.8,2470.944,13.28,0.028,288.4
2022-06-16T07:07:03,42.805,6.029,-0.025,-0.013,-0.015,104.0,104.0,102.0,13.4,1505.2,326.0,-0.8,1.8,2470.998,13.28,0.028,242.5
2022-06-16T07:10:03,42.805,6.029,0.003,-0.022,-0.044,104.0,105.0,102.0,13.4,1505.2,323.8,-0.8,1.8,2470.989,13.28,0.022,172.2
2022-06-16T07:13:03,42.805,6.029,-0.019,-0.023,-0.019,104.0,103.0,102.0,13.3,1505.2,319.7,-0.8,1.8,2470.953,13.28,0.029,219.6
2022-06-16T07:16:03,42.805,6.029,-0.022,0.006,-0.034,103.0,104.0,102.0,13.3,1505.2,326.1,-0.8,1.8,2470.972,13.29,0.022,285.3
2022-06-16T07:19:03,42.805,6.029,-0.021,-0.017,-0.035,104.0,104.0,102.0,13.3,1505.2,324.5,-0.7,1.8,2470.991,13.29,0.027,231.0
2022-06-16T07:22:03,42.805,6.029,-0.022,-0.009,-0.026,105.0,105.0,101.0,13.4,1505.2,322.6,-0.8,1.8,2470.932,13.29,0.023,247.8
2022-06-16T07:25:03,42.805,6.029,-0.016,0.0,-0.048,104.0,105.0,102.0,13.4,1505.2,331.5,-0.8,1.8,2470.996,13.29,0.016,270.0
2022-06-16T07:28:03,42.805,6.029,-0.026,0.005,-0.033,104.0,104.0,102.0,13.3,1505.2,319.4,-0.8,1.8,2470.92,13.29,0.026,280.9
2022-06-16T07:31:03,42.805,6.029,-0.028,0.003,-0.019,103.0,104.0,101.0,13.4,1505.2,326.1,-0.8,1.8,2470.968,13.29,0.028,276.1
2022-06-16T07:34:03,42.805,6.029,-0.022,-0.008,-0.006,105.0,102.0,102.0,13.4,1505.2,328.7,-0.8,1.8,2470.942,13.29,0.023,250.0
2022-06-16T07:37:03,42.805,6.029,-0.037,-0.012,-0.018,104.0,105.0,102.0,13.4,1505.2,327.9,-0.7,1.8,2470.916,13.29,0.038,252.0
2022-06-16T07:40:03,42.805,6.029,-0.011,-0.016,-0.026,104.0,104.0,101.0,13.4,1505.2,329.1,-0.7,1.8,2470.923,13.29,0.019,214.5
2022-06-16T07:43:03,42.805,6.029,-0.002,-0.008,-0.016,103.0,104.0,102.0,13.4,1505.2,326.5,-0.8,1.8,2470.93,13.29,0.008,194.0
2022-06-16T07:46:03,42.805,6.029,-0.023,0.01,-0.006,104.0,104.0,102.0,13.4,1505.2,329.5,-0.8,1.8,2470.93,13.29,0.025,293.5
2022-06-16T07:49:03,42.805,6.029,0.021,-0.037,-0.038,103.0,102.0,101.0,13.3,1505.2,326.0,-0.7,1.8,2470.919,13.29,0.042,150.4
2022-06-16T07:52:03,42.805,6.029,-0.013,-0.005,-0.046,101.0,103.0,103.0,13.4,1505.2,326.0,-0.8,1.8,2470.914,13.29,0.013,249.0
2022-06-16T07:55:03,42.805,6.029,-0.038,-0.004,-0.02,105.0,102.0,100.0,13.4,1505.2,329.5,-0.8,1.8,2470.916,13.29,0.038,264.0
2022-06-16T07:58:03,42.805,6.029,-0.027,0.008,-0.019,103.0,104.0,102.0,13.4,1505.2,325.3,-0.8,1.8,2470.891,13.29,0.028,286.5
2022-06-16T08:04:03,42.805,6.029,-0.019,-0.016,-0.045,103.0,103.0,101.0,13.4,1505.2,323.2,-0.8,1.8,2470.979,13.28,0.024,229.9
2022-06-16T08:07:03,42.805,6.029,0.003,-0.004,0.008,105.0,102.0,101.0,13.4,1505.2,326.7,-0.7,1.8,2470.962,13.28,0.005,143.1
2022-06-16T08:10:03,42.805,6.029,0.0,-0.019,-0.016,105.0,103.0,102.0,13.4,1505.2,320.3,-0.8,1.8,2470.958,13.28,0.019,180.0
2022-06-16T08:13:03,42.805,6.029,-0.024,-0.017,-0.021,104.0,104.0,103.0,13.4,1505.2,321.2,-0.8,1.8,2470.948,13.28,0.029,234.7
2022-06-16T08:16:03,42.805,6.029,-0.008,-0.016,-0.021,104.0,103.0,102.0,13.3,1505.2,328.5,-0.8,1.7,2470.945,13.29,0.017,206.6
2022-06-16T08:19:03,42.805,6.029,-0.012,0.001,-0.011,104.0,103.0,102.0,13.4,1505.2,326.0,-0.8,1.8,2470.939,13.29,0.012,274.8
2022-06-16T08:22:03,42.805,6.029,-0.02,-0.001,-0.029,104.0,104.0,102.0,13.4,1505.2,332.7,-0.8,1.8,2470.906,13.29,0.02,267.1
2022-06-16T08:25:03,42.805,6.029,-0.024,-0.03,-0.033,105.0,103.0,101.0,13.4,1505.2,322.1,-0.8,1.9,2470.96,13.29,0.038,218.7
2022-06-16T08:28:03,42.805,6.029,-0.013,-0.012,-0.03,103.0,104.0,102.0,13.4,1505.2,323.8,-0.8,1.8,2470.907,13.29,0.017,227.3
2022-06-16T08:31:03,42.805,6.029,-0.017,-0.019,-0.032,104.0,104.0,101.0,13.3,1505.2,324.5,-0.7,1.8,2470.955,13.29,0.025,221.8
2022-06-16T08:34:03,42.805,6.029,-0.005,-0.001,-0.018,105.0,104.0,102.0,13.4,1505.2,332.5,-0.7,1.8,2470.88,13.29,0.005,258.7
2022-06-16T08:37:03,42.805,6.029,-0.019,-0.003,-0.036,103.0,104.0,101.0,13.4,1505.2,321.0,-0.7,1.8,2470.961,13.29,0.019,261.0
2022-06-16T08:40:03,42.805,6.029,-0.021,-0.003,-0.057,104.0,103.0,101.0,13.3,1505.2,329.2,-0.8,1.8,2470.929,13.29,0.021,261.9
2022-06-16T08:43:03,42.805,6.029,-0.03,0.002,-0.018,103.0,103.0,102.0,13.4,1505.2,323.9,-0.7,1.9,2470.89,13.29,0.03,273.8
2022-06-16T08:46:03,42.805,6.029,-0.009,-0.008,-0.012,104.0,105.0,101.0,13.4,1505.2,325.2,-0.7,1.8,2470.939,13.29,0.012,228.4
2022-06-16T08:49:03,42.805,6.029,-0.001,0.004,-0.001,105.0,103.0,103.0,13.3,1505.2,324.3,-0.8,1.8,2470.915,13.29,0.004,346.0
2022-06-16T08:52:03,42.805,6.029,-0.013,-0.019,-0.024,103.0,103.0,101.0,13.4,1505.2,325.3,-0.8,1.8,2470.958,13.29,0.023,214.4
2022-06-16T08:55:03,42.805,6.029,-0.01,-0.004,-0.01,103.0,105.0,101.0,13.3,1505.2,323.8,-0.8,1.8,2470.901,13.29,0.01,248.2
2022-06-16T08:58:03,42.805,6.029,-0.027,-0.025,0.001,104.0,103.0,101.0,13.4,1505.2,326.8,-0.7,1.8,2470.923,13.29,0.036,227.2
2022-06-16T09:04:03,42.805,6.029,-0.011,-0.032,-0.03,105.0,104.0,102.0,13.4,1505.2,322.7,-0.8,1.8,2470.943,13.28,0.033,199.0
2022-06-16T09:07:03,42.805,6.029,-0.012,-0.023,-0.03,105.0,103.0,102.0,13.4,1505.2,327.6,-0.8,1.9,2470.935,13.28,0.025,207.6
2022-06-16T09:10:03,42.805,6.029,-0.02,-0.03,-0.01,105.0,101.0,102.0,13.3,1505.2,326.9,-0.7,1.8,2470.902,13.28,0.036,213.7
2022-06-16T09:13:03,42.805,6.029,0.0,-0.003,-0.046,105.0,103.0,101.0,13.4,1505.2,325.9,-0.8,1.9,2470.936,13.28,0.003,180.0
2022-06-16T09:16:03,42.805,6.029,0.01,-0.023,-0.002,103.0,103.0,102.0,13.3,1505.2,323.4,-0.8,1.8,2470.921,13.28,0.025,156.5
2022-06-16T09:19:03,42.805,6.029,-0.013,-0.017,-0.05,104.0,105.0,102.0,13.3,1505.2,332.9,-0.8,1.8,2470.928,13.28,0.021,217.4
2022-06-16T09:22:03,42.805,6.029,-0.014,-0.006,-0.034,104.0,104.0,102.0,13.3,1505.2,330.3,-0.7,1.8,2470.934,13.28,0.015,246.8
2022-06-16T09:25:03,42.805,6.029,-0.023,-0.018,-0.023,104.0,105.0,102.0,13.4,1505.2,331.0,-0.8,1.8,2470.949,13.29,0.029,232.0
2022-06-16T09:28:03,42.805,6.029,-0.035,-0.012,-0.007,105.0,103.0,101.0,13.4,1505.2,323.6,-0.8,1.8,2470.915,13.29,0.037,251.1
2022-06-16T09:31:03,42.805,6.029,-0.03,-0.01,-0.018,106.0,104.0,102.0,13.4,1505.2,324.6,-0.8,1.8,2470.909,13.29,0.031,251.6
2022-06-16T09:34:03,42.805,6.029,-0.03,-0.009,-0.045,104.0,103.0,103.0,13.4,1505.2,324.6,-0.7,1.8,2470.898,13.29,0.031,253.3
2022-06-16T09:37:03,42.805,6.029,-0.036,-0.009,-0.057,105.0,103.0,103.0,13.3,1505.2,332.2,-0.8,1.8,2470.892,13.29,0.037,256.0
2022-06-16T09:40:03,42.805,6.029,-0.017,-0.002,-0.024,103.0,104.0,103.0,13.4,1505.2,331.1,-0.8,1.8,2470.891,13.29,0.017,263.3
2022-06-16T09:43:03,42.805,6.029,-0.019,-0.046,-0.032,102.0,104.0,104.0,13.4,1505.2,330.1,-0.8,1.8,2470.89,13.29,0.049,202.4
2022-06-16T09:46:03,42.805,6.029,-0.02,-0.011,-0.026,104.0,103.0,101.0,13.4,1505.2,326.4,-0.8,1.9,2470.901,13.29,0.022,241.2
2022-06-16T09:49:03,42.805,6.029,-0.013,-0.018,-0.006,104.0,101.0,103.0,13.3,1505.2,332.0,-0.7,1.8,2470.918,13.29,0.022,215.8
2022-06-16T09:52:03,42.805,6.029,0.0,-0.016,-0.026,103.0,105.0,101.0,13.4,1505.2,325.7,-0.8,1.8,2470.929,13.29,0.016,180.0